Regional Weather Roundup
Issued by NWS

Home | Current Version | Previous Version | Text Only | Print | Product List | Glossary Off
Versions: 1 2 3 4 5 6 7 8 9 10 11 12 13 14 15 16 17 18 19 20 21 22 23 24 25 26 27 28 29 30 31 32 33 34 35 36 37 38 39 40 41 42 43 44 45 46 47 48 49 50

000
ASUS43 KTOP 270408
RWRKS

WEATHER ROUNDUP FOR KANSAS
NATIONAL WEATHER SERVICE GOODLAND KS
1100 PM CDT TUE AUG 26 2014

NOTE:  "FAIR" INDICATES FEW OR NO CLOUDS BELOW 12,000 FEET WITH NO
SIGNIFICANT WEATHER AND/OR OBSTRUCTIONS TO VISIBILITY.

KSZ001>006-013>018-027>032-041>047-270500-
NORTHWEST KANSAS

CITY           SKY/WX    TMP DP  RH WIND       PRES   REMARKS
GOODLAND       TSTM      65  62  90 S18G24    30.20R
HAYS           PTCLDY    73  64  73 E7        30.10R
HILL CITY      MOCLDY    75  65  70 E3        30.10R
RUSSELL        PTCLDY    76  69  79 E6        30.08R
$$

KSZ061>065-074>080-084>089-270500-
SOUTHWEST KANSAS

CITY           SKY/WX    TMP DP  RH WIND       PRES   REMARKS
DODGE CITY     MOCLDY    76  63  64 SE8       30.12R
ELKHART          N/A     67  62  84 W7          N/A
GARDEN CITY    CLOUDY    74  62  66 S8        30.13R
GREAT BEND     MOCLDY    77  64  65 SE8       30.09R
LIBERAL        CLOUDY    72  61  68 W9        30.18R
PRATT          CLOUDY    77  63  61 CALM      30.10S
$$

KSZ066>073-081>083-090>101-270500-
SOUTHEAST KANSAS

CITY           SKY/WX    TMP DP  RH WIND       PRES   REMARKS
CHANUTE        MOCLDY    82  64  54 SE8       30.07R
COFFEYVILLE    MOCLDY    84  66  54 E9        30.06R
HUTCHINSON     MOCLDY    77  67  71 E8        30.07R
MEDICINE LODGE   N/A     82  65  56 E6        30.06S
NEWTON         MOCLDY    79  63  57 E3        30.11S
PARSONS        PTCLDY    83  65  54 VRB5      30.08R
WICHITA INTL   CLOUDY    80  69  69 E6        30.06S
WICHITA JABRA  CLOUDY    77  69  76 E3        30.07S
WICHITA MCCONL CLOUDY    82  67  61 E8        30.07S
WINFIELD       PTCLDY    82  67  60 SE7       30.07R
$$

KSZ007>012-019>026-033>040-048>060-102>105-270500-
NORTHEAST KANSAS

CITY           SKY/WX    TMP DP  RH WIND       PRES   REMARKS
CONCORDIA      PTCLDY    73  69  87 SE3       30.09R
EMPORIA        CLOUDY    76  68  76 E3        30.07F
LAWRENCE       MOCLDY    79  73  82 NE3       30.08R
MANHATTAN      MOCLDY    75  68  78 CALM      30.07S
MARYSVILLE     PTCLDY    73  70  88 E8        30.09S
OLATHE IND     MOCLDY    81  74  79 E3        30.09R
OLATHE EXE     MOCLDY    81  73  76 E7        30.08R
SALINA         PTCLDY    81  67  62 CALM      30.07R
TOPEKA BILLARD MOCLDY    79  73  82 E5        30.07S
TOPEKA FORBES  MOCLDY    78  71  79 E5        30.07F
$$


USA.gov is the U.S. government's official web portal to all federal, state and local government web resources and services.